Theta_e
317 318 319 314 311 310 309 307 305 302 301 299 297 296 296 296 296 296 295 295 295 295 294 294 294 293 293 293 293 293 293 293 293 293 292 293 293 293 293 293 293 293 293
315 312 310 310 308 307 304 302 301 298 297 296 296 296 296 296 295 295 295 295 294 294 293 293 293 293 293 292 292 292 292 292 292 293 292 293 293 292 292 292 292 291 291
310 310 309 307 304 302 301 299 297 296 296 296 296 296 295 295 295 294 294 294 293 293 293 292 292 292 292 292 292 292 292 291 291 289 291 291 292 290 290 289 288 288 288
308 307 305 302 301 299 297 296 296 297 297 297 296 295 295 294 294 294 293 293 292 292 292 292 292 291 291 291 291 291 291 290 289 288 288 288 288 288 287 287 288 287 288
305 303 302 300 298 296 296 297 297 297 297 296 295 294 294 293 293 292 292 291 291 291 291 291 291 291 291 291 291 291 290 288 288 288 287 286 286 286 286 286 287 287 287
302 301 300 297 296 296 297 297 297 297 296 294 294 293 293 292 291 291 290 290 290 290 290 290 290 291 290 290 290 290 289 287 286 286 286 286 286 286 287 286 286 285 285
300 299 297 296 296 297 297 297 297 296 294 293 293 292 291 290 290 290 290 290 290 290 290 290 290 290 290 290 290 290 289 286 286 286 286 286 286 286 286 286 285 285 286
299 297 296 296 297 297 297 297 296 294 293 292 291 291 290 290 289 289 289 289 289 289 289 289 289 289 289 290 290 289 289 287 285 286 285 286 285 285 286 286 285 285 286
298 296 296 296 297 297 297 297 294 293 292 291 291 290 289 289 289 289 289 289 289 289 289 289 289 289 289 289 289 288 287 287 285 285 286 286 286 286 286 286 286 286 286
297 296 296 296 296 296 296 294 293 291 291 290 289 289 289 289 289 289 289 289 289 289 288 288 288 288 289 289 286 286 286 287 285 286 286 286 286 286 286 286 286 286 285
296 295 296 296 296 296 294 292 291 291 290 289 289 289 289 289 288 288 288 288 288 288 288 288 287 286 286 286 285 285 285 285 286 286 286 286 286 286 286 286 285 285 285
295 295 296 296 295 294 292 291 290 290 289 289 289 288 288 288 288 288 288 287 287 287 287 286 285 284 285 285 285 284 286 286 286 286 286 286 286 286 286 285 285 284 284
295 295 296 295 294 292 291 290 290 289 289 288 289 288 288 288 288 288 287 287 287 286 285 284 284 284 285 284 284 284 285 286 286 286 286 286 286 286 285 285 285 285 285
296 296 295 295 293 291 290 289 289 288 288 288 288 288 288 288 287 287 287 286 286 286 285 284 285 285 284 284 284 284 285 285 286 286 286 286 286 285 285 284 284 284 284
295 295 295 293 292 292 289 289 288 288 288 287 288 288 287 287 287 286 286 286 285 284 284 284 284 285 285 285 285 285 285 285 285 285 285 285 285 285 283 282 283 282 282
295 295 297 298 292 289 289 288 288 288 287 287 287 287 286 286 286 286 285 284 284 283 283 283 284 284 284 284 284 284 285 285 285 285 285 285 283 282 281 280 280 280 280
297 297 297 292 289 289 288 288 287 287 287 286 286 286 286 286 286 285 284 284 284 284 284 283 283 283 283 283 283 283 284 284 284 284 284 282 281 280 279 279 278 278 278
299 296 291 289 288 288 288 287 287 286 286 286 286 286 285 285 285 284 284 284 284 283 283 283 282 282 283 283 283 283 283 283 283 283 283 280 279 278 278 277 276 276 276
295 291 289 288 288 288 287 287 286 286 286 286 285 285 285 284 284 284 284 283 283 282 281 281 281 282 282 282 282 281 282 282 282 282 280 278 278 277 277 276 275 275 275
291 290 288 288 287 287 287 286 286 286 286 285 285 284 284 284 284 283 283 282 281 281 280 280 280 280 280 279 279 279 280 280 280 281 278 277 277 276 276 276 275 274 274
290 289 287 287 287 286 286 286 286 286 285 285 284 284 284 284 283 282 281 280 280 279 279 279 279 279 279 278 277 278 278 278 279 279 276 276 276 276 278 276 275 274 273
289 288 287 287 286 286 286 286 285 285 285 284 283 283 283 282 281 280 279 279 278 278 278 278 278 278 277 277 276 276 276 277 277 275 274 274 275 279 278 275 274 273 273
288 287 287 286 286 286 285 285 285 284 283 283 283 282 282 281 280 279 278 277 277 277 277 276 276 276 276 275 275 275 275 275 276 275 274 274 277 278 277 274 273 273 272
287 286 286 286 285 285 285 284 283 283 282 282 281 281 280 280 279 278 277 276 276 276 275 275 275 275 274 274 274 274 274 274 274 274 274 275 276 276 275 273 272 272 271
287 286 285 285 284 284 283 283 282 282 281 281 280 279 279 278 277 276 275 275 275 274 274 274 274 274 273 273 274 273 273 273 273 273 274 274 275 275 274 272 270 270 270
286 285 284 283 283 282 282 281 280 280 280 279 279 278 278 277 276 275 274 274 274 274 274 273 273 273 273 273 273 273 273 273 273 273 273 273 274 273 272 271 270 270 270
Wind_Speed
26 26 25 26 24 21 19 18 16 13 10 7 4 2 3 4 6 9 11 13 15 17 19 20 21 22 23 23 23 23 24 26 35 51 45 47 48 47 47 46 45 43 42
28 29 27 26 24 22 19 17 14 11 8 6 2 3 5 7 9 11 14 16 17 18 20 21 22 22 23 24 26 26 28 28 32 44 47 49 47 46 47 48 45 41 40
29 27 27 25 24 22 19 16 13 10 6 3 3 5 8 10 12 14 15 17 18 19 21 22 23 25 25 26 27 28 29 30 31 37 46 44 46 45 48 46 47 49 42
28 27 26 25 23 20 17 14 11 8 5 2 5 8 10 13 14 16 17 18 19 20 22 23 25 26 27 29 30 30 31 29 31 33 35 40 42 43 40 44 51 45 46
30 29 27 25 22 19 16 13 10 5 2 4 7 9 11 13 15 16 17 19 20 21 22 23 24 25 27 29 30 30 29 30 30 32 37 37 37 41 40 42 40 49 47
31 29 26 25 23 20 16 11 7 4 4 6 7 9 12 13 15 17 19 21 22 23 23 23 24 26 27 28 28 28 25 26 28 29 31 34 38 37 40 36 43 41 43
33 31 28 25 22 18 14 10 6 5 6 7 8 9 11 13 15 17 19 21 22 23 24 26 26 27 28 29 29 29 27 23 20 23 27 31 33 32 35 37 35 32 31
35 31 29 25 21 17 13 9 7 7 7 7 9 10 12 13 14 17 18 21 22 24 25 26 27 27 27 28 29 29 27 24 21 20 25 25 23 25 27 27 29 28 22
36 33 29 24 20 16 13 10 9 8 8 10 10 10 10 12 14 16 19 22 24 25 26 28 28 28 27 27 26 27 28 28 22 23 19 17 18 18 20 23 23 26 27
38 34 29 24 20 16 12 10 9 9 10 10 9 8 8 11 13 16 19 23 25 26 26 27 27 27 26 23 22 23 28 26 25 22 15 14 13 16 18 20 21 22 23
36 32 28 24 19 14 12 11 11 11 9 8 7 7 9 11 14 17 20 23 26 27 27 28 26 23 22 21 17 20 23 22 22 15 13 10 13 15 17 18 19 19 19
38 33 28 23 18 14 13 13 12 10 9 8 8 9 11 14 16 19 21 23 24 26 26 26 25 21 21 21 18 19 20 18 14 11 9 13 15 16 16 16 17 17 18
37 32 26 21 17 14 14 14 12 11 10 11 12 13 14 16 18 20 23 25 25 25 25 23 22 21 20 24 20 20 19 13 10 10 13 15 17 16 14 14 14 13 13
35 30 24 20 17 16 15 14 13 12 12 14 15 15 17 18 19 21 24 26 26 24 24 25 27 24 21 23 22 21 19 14 14 16 17 18 16 13 12 12 12 13 13
33 27 23 18 15 20 18 15 14 14 14 16 15 16 18 21 22 24 25 27 25 21 23 24 29 21 19 18 20 22 19 19 18 18 20 18 13 12 10 10 14 15 13
27 20 16 20 25 21 18 16 15 15 14 15 16 18 20 22 23 24 24 21 21 23 23 26 25 22 20 19 20 21 21 20 20 19 18 14 11 11 12 14 15 15 14
19 17 22 28 23 21 19 17 16 15 15 15 16 18 21 22 22 23 23 24 25 24 24 25 25 24 23 22 21 21 22 20 19 16 12 11 12 12 15 16 16 15 14
21 30 28 25 24 23 20 19 18 17 15 15 17 19 21 23 23 23 25 26 25 21 22 24 25 24 23 23 22 22 21 19 17 14 11 13 13 13 15 17 17 16 14
30 29 27 26 25 23 22 21 19 19 19 18 18 18 20 22 22 23 24 25 26 25 23 22 22 23 22 21 21 20 20 19 17 15 12 14 14 15 15 17 17 16 14
32 28 27 27 27 25 23 22 21 20 19 19 19 20 20 22 22 22 22 22 21 22 22 22 21 20 19 19 18 19 19 19 18 17 14 15 15 15 15 17 17 15 14
29 29 29 27 26 24 23 22 22 21 20 20 20 20 23 24 24 23 22 21 22 21 20 20 20 19 18 17 18 18 18 19 19 16 15 15 15 14 16 18 17 15 13
29 28 27 26 25 25 24 23 23 22 22 21 21 20 22 22 22 21 21 21 21 21 21 20 19 17 15 15 16 18 18 19 18 16 17 16 15 16 18 18 18 15 13
29 29 28 27 27 27 25 24 23 23 22 22 22 21 21 21 21 21 21 21 21 20 20 20 19 17 15 15 15 17 19 20 19 18 18 19 19 20 19 19 18 16 14
30 30 29 29 28 27 25 25 24 23 23 22 21 21 22 22 21 21 20 20 20 20 20 19 19 19 18 17 17 18 19 21 22 21 21 23 23 22 20 19 18 17 16
33 33 31 30 28 27 26 25 24 23 23 22 21 21 21 21 21 21 21 20 19 19 19 20 20 20 20 20 20 21 21 22 23 23 24 25 25 23 21 20 20 19 18
35 34 32 31 29 27 26 24 23 23 21 21 21 21 21 21 21 21 21 21 21 21 21 22 22 22 22 22 22 23 24 25 26 26 26 26 26 24 22 21 21 21 20
Wind_Direction
187 189 187 173 167 167 167 166 165 168 171 178 196 224 284 316 324 324 325 326 325 325 324 323 322 321 319 319 318 318 314 307 302 310 315 319 320 324 324 324 324 324 323
171 169 168 166 167 167 168 168 170 173 173 175 200 284 303 311 318 323 326 325 324 322 323 322 322 322 321 321 322 321 318 315 310 310 317 321 323 326 323 323 323 322 319
171 169 169 169 170 172 172 172 170 174 173 189 262 299 310 317 320 322 324 323 323 323 324 325 325 324 324 324 323 323 322 319 315 314 315 320 321 324 323 323 321 322 320
175 174 176 174 174 176 175 170 170 177 192 254 301 308 311 315 318 320 322 324 326 327 327 327 326 326 326 326 326 327 325 321 320 319 312 316 319 325 324 323 322 327 324
180 180 180 178 178 178 175 175 180 188 246 296 303 306 308 312 316 319 324 325 327 329 329 328 329 328 327 328 327 327 325 323 322 317 319 319 322 327 329 331 325 319 326
186 184 184 183 181 179 180 181 190 224 276 290 297 300 305 314 321 324 328 331 333 333 332 331 331 331 330 326 325 325 323 322 318 322 321 321 323 327 331 322 322 327 326
189 188 188 186 185 184 184 189 210 251 272 280 291 302 312 321 325 328 333 335 338 339 337 335 332 332 329 326 325 324 325 330 325 321 316 318 319 321 315 321 329 332 330
190 191 190 188 188 189 194 207 237 256 267 283 295 304 312 318 324 329 332 334 337 336 334 332 331 330 329 327 324 323 327 327 328 325 316 316 316 315 321 327 332 330 337
193 193 193 192 193 199 210 232 250 256 267 277 290 304 316 321 330 334 333 331 330 328 327 325 325 325 326 326 324 325 325 326 327 323 322 319 324 332 337 340 345 349 348
196 195 193 195 199 210 225 240 246 250 262 279 295 308 320 325 330 330 328 325 321 320 319 319 322 321 325 326 326 324 316 327 324 326 335 338 343 341 340 342 347 353 356
194 195 196 199 206 218 233 238 242 254 268 276 288 306 314 320 322 321 320 318 317 317 319 319 319 323 321 325 321 308 314 315 314 323 332 339 336 335 339 343 348 354 358
196 197 199 204 212 225 232 239 247 260 263 270 285 298 303 310 314 317 316 314 314 312 313 314 318 321 317 321 308 304 313 315 321 326 330 330 332 337 344 350 352 356 1
196 198 202 207 218 226 236 242 253 256 263 276 281 290 302 311 315 316 319 320 319 315 316 310 315 309 305 312 306 302 308 310 317 317 321 325 329 336 346 351 354 355 357
197 200 205 215 224 231 235 244 248 253 267 277 285 296 303 308 314 317 318 318 319 320 323 320 312 312 298 300 311 303 295 297 300 308 313 317 321 329 336 347 354 351 348
198 203 211 217 234 243 235 237 246 260 273 282 290 301 306 311 316 319 321 320 318 318 309 300 303 309 299 290 302 309 297 284 288 296 301 305 309 317 325 341 342 331 330
201 208 229 243 237 230 232 239 247 261 273 283 296 304 306 309 314 318 320 314 310 314 308 305 306 305 296 290 293 302 300 289 286 290 293 291 301 310 317 327 324 324 323
207 226 238 236 230 231 234 244 257 264 272 283 295 299 303 307 312 317 313 313 319 316 308 304 299 298 294 284 285 294 298 290 284 284 279 289 294 308 317 319 319 319 319
232 229 230 231 232 234 239 249 256 263 275 287 294 299 303 307 311 312 314 314 312 309 303 301 298 297 294 287 282 284 288 283 278 268 272 284 289 299 309 315 315 313 311
229 230 231 233 235 238 244 253 261 269 279 288 296 300 302 303 307 311 311 313 313 310 307 301 296 296 292 286 282 281 278 272 264 254 264 275 284 296 308 312 311 309 308
229 233 235 237 238 240 247 255 263 271 281 289 294 297 297 299 304 308 311 311 308 306 305 304 303 301 297 294 287 281 274 265 256 251 258 270 282 293 305 311 310 305 302
234 234 236 238 241 245 251 259 268 275 281 286 289 294 297 303 307 311 313 311 308 305 302 301 301 300 297 295 290 281 271 261 255 252 264 272 279 290 303 306 304 297 294
235 238 240 242 245 249 254 261 266 272 277 283 287 291 295 299 303 306 308 308 306 304 302 299 296 296 295 290 284 278 270 261 255 258 268 275 280 290 297 297 295 287 283
237 239 240 243 246 249 253 260 265 270 275 280 285 289 292 297 300 302 305 305 304 302 300 298 295 293 289 285 281 276 272 266 261 262 271 278 286 290 289 291 287 280 274
240 241 241 243 246 250 254 258 262 267 271 275 281 287 292 296 299 300 301 302 302 301 298 294 292 289 286 282 279 276 276 275 272 270 272 278 283 285 284 285 281 275 270
242 241 242 244 246 249 252 256 260 264 269 274 278 284 289 292 295 296 297 297 297 296 295 293 291 288 286 284 281 279 278 277 277 277 281 282 283 282 279 278 274 268 264
239 239 239 241 244 247 250 253 257 262 266 271 276 280 284 287 290 290 290 291 292 291 290 288 287 286 284 283 282 281 280 279 280 280 281 281 281 279 277 275 270 265 262